Location: Newark
(54.2500°N, 9.1833°E)
Time: 03:25:08
(UTC+00:00)

Transit 4A - Pass Details

Date: 18 December 2019
Orbit: 871 x 973 km, 66.8° (Epoch: 23 January)

Event Time Altitude Azimuth Distance (km) Brightness Sun altitude
Rises 19:43:40 0° 302° (WNW) 3,536 11.8 -39.6°
Reaches altitude 10° 19:46:39 10° 315° (NW) 2,578 10.8 -40.0°
Enters shadow 19:48:40 18° 331° (NNW) 2,046 10.0 -40.3°
